Simultaneous Nadir Overpasses (SNOs) Predictions

Prediction of SNOs between GOES-16 and AQUA Satellite Orbit:

Table of predicted SNOs for the next 14.0 days since TLE Epoch: 5/11/2019
Index Date Time (GOES-16) GOES-16 Lat,Lon AQUA Lat,Lon Distance(km) Time Diff (sec)
1 05/11/2019 06:29:46 -0.00, -75.19 -0.25, -73.87 149.08 80
2 05/11/2019 18:51:11 0.00, -75.19 -0.80, -79.08 441.38 80
3 05/13/2019 06:17:34 -0.00, -75.19 -0.89, -70.92 485.71 80
4 05/13/2019 18:38:59 0.00, -75.20 -0.17, -76.12 104.54 80
5 05/15/2019 18:29:26 0.00, -75.21 0.41, -73.15 233.18 80
6 05/16/2019 06:50:41 -0.00, -75.21 0.68, -78.31 352.43 80
7 05/18/2019 06:38:29 0.00, -75.23 0.03, -75.35 13.96 80
8 05/20/2019 06:23:37 0.01, -75.25 -0.62, -72.40 325.05 80
9 05/20/2019 18:45:01 -0.01, -75.26 -0.51, -77.59 264.91 80
10 05/22/2019 18:35:29 -0.01, -75.29 0.15, -74.63 74.78 80
11 05/24/2019 18:23:16 -0.01, -75.32 0.75, -71.67 415.00 80




NCC Satellite Simultaneous Nadir Overpasses (SNOs) Prediction Service
